Weather History for Esquimalt Harbour, BC

Change the Weather History Date:

Saturday, January 11, 2014

  Actual Average (CYWH) Record (CYWH)
Temperature  
Mean Temperature 46 °F -  
Max Temperature 48 °F 44 °F 50 °F (2002)
Min Temperature 43 °F 38 °F 24 °F (1998)
Degree Days  
Heating Degree Days 20    
Moisture  
Dew Point 41 °F    
Average Humidity 83    
Maximum Humidity 100    
Minimum Humidity 71    
Precipitation  
Precipitation 0.00 in - - ()
Sea Level Pressure  
Sea Level Pressure 29.35 in    
Wind  
Wind Speed 13 mph ()    
Max Wind Speed 33 mph    
Max Gust Speed 44 mph    
Averages and records for this station are not official NWS values.
T = Trace of Precipitation, MM = Missing Value Source: Averaged Metar Reports

Daily Weather History Graph

Daily Weather History Graph

Search for Another Location

Airport:

Trip Planner

Search our weather history database for the weather conditions in past years. The results will help you decide how hot, cold, wet, or windy it might be!

Date:

Astronomy

Jan. 11, 2014 Rise Set
Actual Time 8:02 AM PST 4:41 PM PST
Civil Twilight 7:26 AM PST 5:17 PM PST
Nautical Twilight 6:47 AM PST 5:56 PM PST
Astronomical Twilight 6:09 AM PST 6:34 PM PST
Moon 1:32 PM PST (1/11) 4:08 AM PST (1/11)
Length of Visible Light 9h 50m
Length of Day
8h 38m
Waxing Gibbous, 84% of the Moon is Illuminated
Jan 11
Waxing Gibbous
Jan 15
Full
Jan 23
Last Quarter
Jan 30
New
Feb 6
First Quarter

Hourly Weather History & Observations

Time (PST) Temp. Windchill Dew Point Humidity Pressure Visibility Wind Dir Wind Speed Gust Speed Precip Events Conditions
12:00 AM 45.1 °F 42.0 °F 43.5 °F 94% 29.38 in - NW 5.8 mph - N/A   Unknown
1:00 AM 43.7 °F - 43.9 °F 100% 29.32 in - NNE 2.3 mph - N/A   Unknown
2:00 AM 45.7 °F - 44.4 °F 95% 29.31 in - SE 1.2 mph - N/A   Unknown
3:00 AM 48.7 °F - 45.5 °F 89% 29.32 in - SW 17.3 mph 29.9 mph N/A   Unknown
4:00 AM 46.9 °F - 42.1 °F 83% 29.34 in - SSW 29.9 mph 39.1 mph N/A   Unknown
5:00 AM 46.4 °F 39.0 °F 41.5 °F 83% 29.34 in - South 19.6 mph - N/A   Unknown
6:00 AM 46.8 °F - 41.5 °F 82% 29.32 in - South 18.4 mph - N/A   Unknown
7:00 AM 47.1 °F - 40.3 °F 77% 29.35 in - SW 17.3 mph - N/A   Unknown
8:00 AM 47.8 °F - 39.4 °F 72% 29.36 in - SW 18.4 mph 24.2 mph N/A   Unknown
9:00 AM 46.4 °F 40.7 °F 41.0 °F 81% 29.32 in - SSE 12.7 mph - N/A   Unknown
10:00 AM 45.5 °F 43.2 °F 40.6 °F 83% 29.29 in - East 4.6 mph - N/A   Unknown
11:00 AM 43.7 °F 37.7 °F 40.3 °F 88% 29.30 in - SE 11.5 mph 18.4 mph N/A   Unknown
12:00 PM 46.0 °F 44.8 °F 40.8 °F 82% 29.24 in - East 3.5 mph - N/A   Unknown
1:00 PM 45.5 °F 43.2 °F 41.9 °F 87% 29.21 in - ESE 4.6 mph - N/A   Unknown
2:00 PM 45.7 °F 39.8 °F 41.5 °F 85% 29.19 in - SE 12.7 mph - N/A   Unknown
3:00 PM 45.9 °F 37.2 °F 41.7 °F 85% 29.21 in - South 25.3 mph 35.7 mph N/A   Unknown
4:00 PM 46.0 °F 37.8 °F 41.0 °F 83% 29.25 in - SSW 23.0 mph 29.9 mph N/A   Unknown
5:00 PM 43.7 °F 33.3 °F 41.5 °F 92% 29.27 in - SSW 31.1 mph 36.8 mph N/A   Unknown
6:00 PM 46.2 °F 36.8 °F 41.5 °F 84% 29.31 in - SW 31.1 mph 41.4 mph N/A   Unknown
7:00 PM 46.8 °F - 40.3 °F 78% 29.41 in - SW 21.9 mph 27.6 mph N/A   Unknown
8:00 PM 45.9 °F 37.2 °F 38.3 °F 75% 29.49 in - SW 25.3 mph 38.0 mph N/A   Unknown
9:00 PM 46.4 °F 38.5 °F 39.4 °F 77% 29.56 in - SSW 21.9 mph 28.8 mph N/A   Unknown
10:00 PM 46.0 °F 39.0 °F 38.8 °F 76% 29.64 in - SW 17.3 mph 25.3 mph N/A   Unknown
11:00 PM 45.9 °F 36.0 °F 37.0 °F 71% 29.68 in - SSW 33.4 mph 43.7 mph N/A   Unknown